DL7MAP-13 Weather Reports


Display with metric or nautical units.
time (UTC)temp
F
wind
direction
speed
MPH
gust
MPH
rain 1hr
in
rain 24hr
in
rain mn
in
humidity
%
barometer
mb
20260906221715 53 0.0 0.0 0.00 0.00 0.00 88 1020.2
20260906220215 53 0.0 0.0 0.00 0.00 0.00 88 1020.0
20260906214716 53 0.0 0.0 0.00 0.00 0.00 87 1020.2
20260906213215 53 0.0 0.0 0.00 0.00 0.00 86 1020.1
20260906211715 54 0.0 0.0 0.00 0.00 0.00 85 1020.3
20260906210215 54 0.0 0.0 0.00 0.00 0.00 85 1020.3
20260906204716 55 0.0 0.0 0.00 0.00 0.00 84 1020.3
20260906203216 55 0.0 0.0 0.00 0.00 0.00 82 1020.4
20260906201715 55 0.0 0.0 0.00 0.00 0.00 81 1020.5
20260906200216 55 0.0 0.0 0.00 0.00 0.00 79 1020.6
20260906194715 56 0.0 0.0 0.00 0.00 0.00 78 1020.6
20260906193216 57 0.0 0.0 0.00 0.00 0.00 76 1020.6
20260906191715 57 0.0 0.0 0.00 0.00 0.00 74 1020.7
20260906190215 58 0.0 0.0 0.00 0.00 0.00 72 1020.3
20260906184716 58 0.0 0.0 0.00 0.00 0.00 72 1020.3
20260906183216 60 0.0 0.0 0.00 0.00 0.00 68 1020.5
20260906181716 61 0.0 0.0 0.00 0.00 0.00 65 1020.4
20260906180216 63 0.0 0.0 0.00 0.00 0.00 61 1020.3
20260906174715 65 0.0 0.0 0.00 0.00 0.00 57 1020.2
20260906173216 66 0.0 0.0 0.00 0.00 0.00 54 1020.0
20260906171715 67 0.0 0.0 0.00 0.00 0.00 53 1019.6
20260906170216 67 0.0 0.0 0.00 0.00 0.00 52 1020.2
20260906164715 68 0.0 0.0 0.00 0.00 0.00 51 1021.6
20260906163215 68 0.0 0.0 0.00 0.00 0.00 51 1019.6
20260906161715 68 0.0 0.0 0.00 0.00 0.00 51 1021.6
20260906160215 68 0.0 0.0 0.00 0.00 0.00 50 1020.1
20260906154716 69 0.0 0.0 0.00 0.00 0.00 49 1021.6
20260906153216 71 0.0 0.0 0.00 0.00 0.00 47 1020.4
20260906151716 71 0.0 0.0 0.00 0.00 0.00 48 1020.5
20260906150216 72 0.0 0.0 0.00 0.00 0.00 48 1020.5
20260906144715 71 0.0 0.0 0.00 0.00 0.00 48 1021.9
20260906143216 70 0.0 0.0 0.00 0.00 0.00 48 1019.8
20260906141716 70 0.0 0.0 0.00 0.00 0.00 49 1022.0
20260906140216 69 0.0 0.0 0.00 0.00 0.00 50 1019.6
20260906134716 71 0.0 0.0 0.00 0.00 0.00 48 1020.5
20260906133216 70 0.0 0.0 0.00 0.00 0.00 48 1021.5
20260906131715 69 0.0 0.0 0.00 0.00 0.00 50 1022.2
20260906130215 68 0.0 0.0 0.00 0.00 0.00 50 1021.6
20260906124716 70 0.0 0.0 0.00 0.00 0.00 48 1021.8
20260906123216 69 0.0 0.0 0.00 0.00 0.00 51 1021.3
20260906121715 69 0.0 0.0 0.00 0.00 0.00 50 1021.5
20260906120215 70 0.0 0.0 0.00 0.00 0.00 47 1021.6
20260906114716 69 0.0 0.0 0.00 0.00 0.00 52 1019.9
20260906113216 69 0.0 0.0 0.00 0.00 0.00 51 1021.7
20260906111715 67 0.0 0.0 0.00 0.00 0.00 52 1020.2
20260906110215 68 0.0 0.0 0.00 0.00 0.00 51 1020.3
20260906104715 68 0.0 0.0 0.00 0.00 0.00 51 1021.1
20260906103215 69 0.0 0.0 0.00 0.00 0.00 50 1020.4
20260906101716 67 0.0 0.0 0.00 0.00 0.00 53 1020.4
20260906100215 68 0.0 0.0 0.00 0.00 0.00 54 1021.1
20260906094715 65 0.0 0.0 0.00 0.00 0.00 57 1021.0
20260906093215 65 0.0 0.0 0.00 0.00 0.00 59 1021.1
20260906091716 65 0.0 0.0 0.00 0.00 0.00 61 1020.3
20260906090216 66 0.0 0.0 0.00 0.00 0.00 60 1020.4
20260906084715 66 0.0 0.0 0.00 0.00 0.00 61 1020.9
20260906083215 64 0.0 0.0 0.00 0.00 0.00 63 1020.8
20260906081715 64 0.0 0.0 0.00 0.00 0.00 65 1020.8
20260906080215 63 0.0 0.0 0.00 0.00 0.00 66 1020.5
20260906074716 63 0.0 0.0 0.00 0.00 0.00 68 1020.3
20260906073216 62 0.0 0.0 0.00 0.00 0.00 70 1019.9
20260906071716 61 0.0 0.0 0.00 0.00 0.00 72 1019.5
20260906070216 61 0.0 0.0 0.00 0.00 0.00 73 1019.4
20260906064716 60 0.0 0.0 0.00 0.00 0.00 75 1019.2
20260906063216 59 0.0 0.0 0.00 0.00 0.00 77 1019.2
20260906061717 58 0.0 0.0 0.00 0.00 0.00 79 1019.0
20260906060215 58 0.0 0.0 0.00 0.00 0.00 80 1018.9
20260906054716 57 0.0 0.0 0.00 0.00 0.00 82 1018.7
20260906053216 56 0.0 0.0 0.00 0.00 0.00 83 1018.9
20260906051716 56 0.0 0.0 0.00 0.00 0.00 84 1018.4
20260906050215 55 0.0 0.0 0.00 0.00 0.00 84 1018.4
20260906044715 55 0.0 0.0 0.00 0.00 0.00 84 1018.0
20260906043215 55 0.0 0.0 0.00 0.00 0.00 84 1018.3
20260906041716 55 0.0 0.0 0.00 0.00 0.00 84 1017.8
20260906040215 56 0.0 0.0 0.00 0.00 0.00 83 1017.6
20260906034715 56 0.0 0.0 0.00 0.00 0.00 83 1017.8
20260906033215 56 0.0 0.0 0.00 0.00 0.00 83 1017.6
20260906031715 56 0.0 0.0 0.00 0.00 0.00 83 1017.5
20260906030215 56 0.0 0.0 0.00 0.00 0.00 82 1017.2
20260906024715 56 0.0 0.0 0.00 0.00 0.00 82 1017.0
20260906023215 56 0.0 0.0 0.00 0.00 0.00 82 1017.6
20260906021717 57 0.0 0.0 0.00 0.00 0.00 82 1016.8
20260906020216 57 0.0 0.0 0.00 0.00 0.00 81 1016.8
20260906014716 57 0.0 0.0 0.00 0.00 0.00 81 1017.1
20260906013216 57 0.0 0.0 0.00 0.00 0.00 81 1016.8
20260906011716 57 0.0 0.0 0.00 0.00 0.00 81 1016.7
20260906010215 57 0.0 0.0 0.00 0.00 0.00 81 1016.1
20260906004716 57 0.0 0.0 0.00 0.00 0.00 80 1016.1
20260906003216 58 0.0 0.0 0.00 0.00 0.00 80 1016.2
20260906001715 58 0.0 0.0 0.00 0.00 0.00 79 1016.1
20260906000215 58 0.0 0.0 0.00 0.00 0.00 79 1015.9
20260905234716 58 0.0 0.0 0.00 0.00 0.00 78 1016.1
20260905233215 58 0.0 0.0 0.00 0.00 0.00 77 1016.3
20260905231715 59 0.0 0.0 0.00 0.00 0.00 75 1015.7
20260905230216 59 0.0 0.0 0.00 0.00 0.00 75 1015.8
20260905224715 59 0.0 0.0 0.00 0.00 0.00 74 1015.7
20260905223215 60 0.0 0.0 0.00 0.00 0.00 74 1015.8